Location: Caltech
(34.1382°N, 118.1253°W)
Time: 01:27:12
(UTC-07:00)

Iridium 12 - Visible Passes

Search period start: 27 May 2016 00:00
Search period end: 06 June 2016 00:00
Orbit: 776 x 779 km, 86.4° (Epoch: 26 May)

Date Brightness Start Highest point End Pass type
(mag) Time Alt. Az. Time Alt. Az. Time Alt. Az.
27 May 8.4 05:13:02 10° NE 05:16:30 18° E 05:19:56 10° ESE visible
30 May 8.0 05:12:24 10° NNE 05:16:44 26° E 05:21:03 10° SE visible
31 May 8.5 04:40:24 10° NE 04:42:57 14° ENE 04:45:29 10° ESE visible
02 Jun 7.2 05:12:04 10° NNE 05:16:56 38° E 05:21:46 10° SSE visible
03 Jun 8.2 04:39:24 10° NNE 04:43:14 20° E 04:47:02 10° SE visible
05 Jun 6.3 05:11:56 10° N 05:17:06 58° E 05:22:13 10° SSE visible
